Back to Top

Language: 

My Weather Underground Personal Weather Station Historical Data with Graphs...

Delerius Weather Station Historical Data
Daily Summary for August 20, 2017 Units:  Metric    English   Both
« Previous Day
Next Day »
Daily Weekly Monthly Yearly Custom
  High: Low: Average:
Temperature: 19.8 °C 10.6 °C 15.4 °C
Dew Point: 12.3 °C 8.9 °C 10.4 °C
Humidity: 91 % 52 % 74 %
Wind Speed: 20.9 km/h 0 km/h 9.5 km/h
Wind Gust: 35.4 km/h - -
Wind:- - West
Pressure: 1021.9 hPa 1017.2 hPa -
Precipitation: 0 mm    
Historical Graphs
 
 
Tabular Data for August 20, 2017
Time Temperature Dew Point Pressure Wind Wind Speed Wind Gust Humidity Rainfall Rate (Hourly) solar Conditions
00:00 13.8 °C 10.8 °C 1017.2 hPa West 16.1 km/h 29 km/h 82 % 0 mm 0 W/m2
00:05 13.8 °C 10.9 °C 1017.2 hPa West 17.7 km/h 32.2 km/h 83 % 0 mm 0 W/m2
00:10 13.8 °C 10.8 °C 1017.2 hPa West 19.3 km/h 32.2 km/h 82 % 0 mm 0 W/m2
00:15 13.8 °C 10.8 °C 1017.2 hPa West 19.3 km/h 32.2 km/h 82 % 0 mm 0 W/m2
00:20 13.8 °C 10.8 °C 1017.2 hPa West 19.3 km/h 32.2 km/h 82 % 0 mm 0 W/m2
00:25 13.8 °C 10.8 °C 1017.2 hPa West 17.7 km/h 32.2 km/h 82 % 0 mm 0 W/m2
00:30 13.8 °C 10.8 °C 1017.5 hPa West 16.1 km/h 32.2 km/h 82 % 0 mm 0 W/m2
00:36 13.7 °C 10.7 °C 1017.2 hPa West 16.1 km/h 25.7 km/h 82 % 0 mm 0 W/m2
00:41 13.7 °C 10.7 °C 1017.2 hPa West 16.1 km/h 25.7 km/h 82 % 0 mm 0 W/m2
00:46 13.6 °C 10.6 °C 1017.2 hPa West 16.1 km/h 29 km/h 82 % 0 mm 0 W/m2
00:51 13.6 °C 10.8 °C 1017.2 hPa West 17.7 km/h 35.4 km/h 83 % 0 mm 0 W/m2
00:56 13.6 °C 10.6 °C 1017.5 hPa West 19.3 km/h 35.4 km/h 82 % 0 mm 0 W/m2
01:01 13.7 °C 10.7 °C 1017.5 hPa West 19.3 km/h 30.6 km/h 82 % 0 mm 0 W/m2
01:06 13.6 °C 10.6 °C 1017.5 hPa West 17.7 km/h 30.6 km/h 82 % 0 mm 0 W/m2
01:11 13.5 °C 10.5 °C 1017.5 hPa West 16.1 km/h 30.6 km/h 82 % 0 mm 0 W/m2
01:16 13.4 °C 10.4 °C 1017.5 hPa West 14.5 km/h 30.6 km/h 82 % 0 mm 0 W/m2
01:21 13.3 °C 10.5 °C 1017.5 hPa West 16.1 km/h 25.7 km/h 83 % 0 mm 0 W/m2
01:26 13.3 °C 10.5 °C 1017.8 hPa West 16.1 km/h 29 km/h 83 % 0 mm 0 W/m2
01:31 13.2 °C 10.4 °C 1017.8 hPa West 17.7 km/h 29 km/h 83 % 0 mm 0 W/m2
01:36 13.2 °C 10.4 °C 1017.8 hPa West 17.7 km/h 29 km/h 83 % 0 mm 0 W/m2
01:41 13.1 °C 10.4 °C 1017.8 hPa West 16.1 km/h 29 km/h 84 % 0 mm 0 W/m2
01:46 13 °C 10.3 °C 1017.8 hPa West 16.1 km/h 25.7 km/h 84 % 0 mm 0 W/m2
01:51 12.9 °C 10.3 °C 1017.8 hPa West 16.1 km/h 25.7 km/h 84 % 0 mm 0 W/m2
01:56 12.9 °C 10.3 °C 1018.2 hPa West 16.1 km/h 25.7 km/h 84 % 0 mm 0 W/m2
02:01 12.8 °C 10.3 °C 1018.2 hPa West 14.5 km/h 25.7 km/h 85 % 0 mm 0 W/m2
02:07 12.8 °C 10.3 °C 1018.2 hPa West 14.5 km/h 24.1 km/h 85 % 0 mm 0 W/m2
02:11 12.7 °C 10.2 °C 1018.2 hPa West 14.5 km/h 29 km/h 85 % 0 mm 0 W/m2
02:16 12.7 °C 10.2 °C 1018.2 hPa West 14.5 km/h 29 km/h 85 % 0 mm 0 W/m2
02:22 12.7 °C 10.2 °C 1018.2 hPa West 14.5 km/h 29 km/h 85 % 0 mm 0 W/m2
02:27 12.7 °C 10.2 °C 1018.2 hPa West 14.5 km/h 25.7 km/h 85 % 0 mm 0 W/m2
02:32 12.6 °C 10.3 °C 1018.2 hPa West 14.5 km/h 24.1 km/h 86 % 0 mm 0 W/m2
02:37 12.6 °C 10.3 °C 1018.2 hPa West 14.5 km/h 24.1 km/h 86 % 0 mm 0 W/m2
02:42 12.6 °C 10.3 °C 1018.2 hPa West 12.9 km/h 24.1 km/h 86 % 0 mm 0 W/m2
02:47 12.5 °C 10.2 °C 1018.5 hPa West 11.3 km/h 19.3 km/h 86 % 0 mm 0 W/m2
02:52 12.5 °C 10.2 °C 1018.5 hPa West 11.3 km/h 19.3 km/h 86 % 0 mm 0 W/m2
02:57 12.4 °C 10.1 °C 1018.5 hPa West 12.9 km/h 20.9 km/h 86 % 0 mm 0 W/m2
03:02 12.4 °C 10.1 °C 1018.5 hPa West 14.5 km/h 22.5 km/h 86 % 0 mm 0 W/m2
03:07 12.4 °C 10.3 °C 1018.5 hPa West 12.9 km/h 22.5 km/h 87 % 0 mm 0 W/m2
03:12 12.4 °C 10.3 °C 1018.5 hPa West 14.5 km/h 24.1 km/h 87 % 0 mm 0 W/m2
03:17 12.3 °C 10.2 °C 1018.5 hPa WNW 16.1 km/h 24.1 km/h 87 % 0 mm 0 W/m2
03:22 12.3 °C 10.2 °C 1018.5 hPa WNW 16.1 km/h 25.7 km/h 87 % 0 mm 0 W/m2
03:27 12.3 °C 10.2 °C 1018.5 hPa WNW 16.1 km/h 32.2 km/h 87 % 0 mm 0 W/m2
03:32 12.3 °C 10.2 °C 1018.5 hPa WNW 16.1 km/h 32.2 km/h 87 % 0 mm 0 W/m2
03:37 12.2 °C 10.1 °C 1018.5 hPa WNW 16.1 km/h 30.6 km/h 87 % 0 mm 0 W/m2
03:42 12.2 °C 10.1 °C 1018.5 hPa WNW 17.7 km/h 25.7 km/h 87 % 0 mm 0 W/m2
03:47 12.2 °C 10.1 °C 1018.5 hPa WNW 17.7 km/h 30.6 km/h 87 % 0 mm 0 W/m2
03:52 12.2 °C 10.1 °C 1018.8 hPa WNW 17.7 km/h 30.6 km/h 87 % 0 mm 0 W/m2
03:57 12.1 °C 10 °C 1018.8 hPa WNW 17.7 km/h 32.2 km/h 87 % 0 mm 0 W/m2
04:02 12.2 °C 10.1 °C 1018.8 hPa WNW 19.3 km/h 32.2 km/h 87 % 0 mm 0 W/m2
04:07 12.2 °C 10.1 °C 1018.8 hPa WNW 20.9 km/h 33.8 km/h 87 % 0 mm 0 W/m2
04:12 12.2 °C 10.1 °C 1018.5 hPa WNW 19.3 km/h 33.8 km/h 87 % 0 mm 0 W/m2
04:17 12.2 °C 10.1 °C 1018.5 hPa WNW 19.3 km/h 30.6 km/h 87 % 0 mm 0 W/m2
04:20 12.2 °C 10.1 °C 1018.5 hPa WNW 19.3 km/h 30.6 km/h 87 % 0 mm 0 W/m2
04:22 12.2 °C 10.1 °C 1018.5 hPa WNW 19.3 km/h 35.4 km/h 87 % 0 mm 0 W/m2
04:24 12.2 °C 10.1 °C 1018.5 hPa WNW 19.3 km/h 35.4 km/h 87 % 0 mm 0 W/m2
04:25 12.2 °C 10.1 °C 1018.5 hPa WNW 19.3 km/h 35.4 km/h 87 % 0 mm 0 W/m2
04:30 12.2 °C 10.1 °C 1018.5 hPa WNW 19.3 km/h 35.4 km/h 87 % 0 mm 0 W/m2
04:35 12.2 °C 10.1 °C 1018.5 hPa WNW 17.7 km/h 32.2 km/h 87 % 0 mm 0 W/m2
04:40 12.1 °C 10 °C 1018.5 hPa WNW 19.3 km/h 33.8 km/h 87 % 0 mm 0 W/m2
04:45 12.1 °C 10 °C 1018.5 hPa WNW 19.3 km/h 33.8 km/h 87 % 0 mm 0 W/m2
04:50 12.1 °C 10 °C 1018.5 hPa WNW 17.7 km/h 33.8 km/h 87 % 0 mm 0 W/m2
04:55 12 °C 9.9 °C 1018.8 hPa WNW 17.7 km/h 32.2 km/h 87 % 0 mm 0 W/m2
05:00 11.9 °C 9.8 °C 1018.8 hPa WNW 16.1 km/h 32.2 km/h 87 % 0 mm 0 W/m2
05:05 11.8 °C 9.7 °C 1018.8 hPa WNW 14.5 km/h 24.1 km/h 87 % 0 mm 0 W/m2
05:10 11.8 °C 9.7 °C 1018.8 hPa WNW 14.5 km/h 24.1 km/h 87 % 0 mm 0 W/m2
05:15 11.7 °C 9.6 °C 1018.8 hPa WNW 14.5 km/h 20.9 km/h 87 % 0 mm 0 W/m2
05:21 11.7 °C 9.8 °C 1018.8 hPa WNW 12.9 km/h 22.5 km/h 88 % 0 mm 0 W/m2
05:26 11.7 °C 9.8 °C 1019.2 hPa WNW 11.3 km/h 22.5 km/h 88 % 0 mm 0 W/m2
05:31 11.6 °C 9.7 °C 1019.2 hPa WNW 9.7 km/h 16.1 km/h 88 % 0 mm 0 W/m2
05:36 11.5 °C 9.6 °C 1019.2 hPa WNW 8 km/h 16.1 km/h 88 % 0 mm 0 W/m2
05:41 11.4 °C 9.5 °C 1019.5 hPa West 8 km/h 14.5 km/h 88 % 0 mm 0 W/m2
05:46 11.3 °C 9.4 °C 1019.2 hPa West 8 km/h 11.3 km/h 88 % 0 mm 0 W/m2
05:51 11.2 °C 9.3 °C 1019.2 hPa West 8 km/h 14.5 km/h 88 % 0 mm 0 W/m2
05:56 11.1 °C 9.3 °C 1019.2 hPa West 9.7 km/h 14.5 km/h 89 % 0 mm 5 W/m2
06:01 10.9 °C 9.2 °C 1019.5 hPa WNW 8 km/h 12.9 km/h 89 % 0 mm 9 W/m2
06:06 10.9 °C 9.2 °C 1019.5 hPa West 6.4 km/h 11.3 km/h 89 % 0 mm 12 W/m2
06:11 10.8 °C 9.1 °C 1019.5 hPa West 4.8 km/h 9.7 km/h 89 % 0 mm 14 W/m2
06:16 10.7 °C 8.9 °C 1019.5 hPa West 6.4 km/h 9.7 km/h 89 % 0 mm 18 W/m2
06:21 10.7 °C 9.1 °C 1019.5 hPa West 6.4 km/h 11.3 km/h 90 % 0 mm 23 W/m2
06:26 10.6 °C 9 °C 1019.5 hPa West 4.8 km/h 11.3 km/h 90 % 0 mm 26 W/m2
06:31 10.6 °C 9 °C 1019.5 hPa West 3.2 km/h 8 km/h 90 % 0 mm 32 W/m2
06:36 10.6 °C 9 °C 1019.9 hPa West 3.2 km/h 8 km/h 90 % 0 mm 35 W/m2
06:41 10.6 °C 9 °C 1019.9 hPa West 3.2 km/h 8 km/h 90 % 0 mm 42 W/m2
06:46 10.6 °C 9.2 °C 1019.9 hPa West 3.2 km/h 14.5 km/h 91 % 0 mm 46 W/m2
06:51 10.7 °C 9.3 °C 1019.9 hPa WNW 6.4 km/h 16.1 km/h 91 % 0 mm 49 W/m2
06:56 10.8 °C 9.4 °C 1019.9 hPa WNW 6.4 km/h 16.1 km/h 91 % 0 mm 51 W/m2
07:01 10.9 °C 9.5 °C 1019.9 hPa WNW 6.4 km/h 11.3 km/h 91 % 0 mm 53 W/m2
07:06 11.1 °C 9.7 °C 1019.9 hPa WNW 8 km/h 11.3 km/h 91 % 0 mm 58 W/m2
07:11 11.2 °C 9.8 °C 1019.9 hPa West 6.4 km/h 12.9 km/h 91 % 0 mm 67 W/m2
07:16 11.3 °C 9.9 °C 1019.9 hPa West 3.2 km/h 12.9 km/h 91 % 0 mm 100 W/m2
07:21 11.5 °C 10.1 °C 1019.9 hPa West 1.6 km/h 9.7 km/h 91 % 0 mm 120 W/m2
07:26 11.7 °C 10.1 °C 1019.9 hPa WSW 1.6 km/h 9.7 km/h 90 % 0 mm 125 W/m2
07:31 11.9 °C 10.3 °C 1019.9 hPa WSW 1.6 km/h 8 km/h 90 % 0 mm 132 W/m2
07:36 12.2 °C 10.6 °C 1020.2 hPa WSW 1.6 km/h 6.4 km/h 90 % 0 mm 153 W/m2
07:41 12.4 °C 10.4 °C 1020.2 hPa ESE 1.6 km/h 9.7 km/h 88 % 0 mm 179 W/m2
07:46 12.7 °C 10.8 °C 1020.2 hPa ENE 1.6 km/h 9.7 km/h 88 % 0 mm 171 W/m2
07:51 12.8 °C 10.7 °C 1020.5 hPa West 1.6 km/h 9.7 km/h 87 % 0 mm 199 W/m2
07:56 13 °C 10.9 °C 1020.5 hPa West 6.4 km/h 16.1 km/h 87 % 0 mm 218 W/m2
08:01 13.2 °C 10.9 °C 1020.2 hPa West 11.3 km/h 20.9 km/h 86 % 0 mm 237 W/m2
08:06 13.5 °C 11.2 °C 1020.2 hPa West 12.9 km/h 20.9 km/h 86 % 0 mm 251 W/m2
08:11 13.8 °C 11.3 °C 1020.5 hPa West 12.9 km/h 19.3 km/h 85 % 0 mm 260 W/m2
08:16 14.1 °C 11.4 °C 1020.5 hPa WNW 12.9 km/h 22.5 km/h 84 % 0 mm 276 W/m2
08:21 14.4 °C 11.6 °C 1020.5 hPa WNW 12.9 km/h 24.1 km/h 83 % 0 mm 288 W/m2
08:26 14.6 °C 11.4 °C 1020.5 hPa WNW 12.9 km/h 24.1 km/h 81 % 0 mm 308 W/m2
08:31 14.7 °C 11.3 °C 1020.5 hPa West 12.9 km/h 29 km/h 80 % 0 mm 318 W/m2
08:36 14.8 °C 11.4 °C 1020.5 hPa West 12.9 km/h 29 km/h 80 % 0 mm 334 W/m2
08:41 14.8 °C 11.2 °C 1020.5 hPa West 14.5 km/h 25.7 km/h 79 % 0 mm 355 W/m2
08:46 14.9 °C 11.1 °C 1020.5 hPa West 17.7 km/h 30.6 km/h 78 % 0 mm 360 W/m2
08:51 15 °C 11.2 °C 1020.5 hPa West 17.7 km/h 30.6 km/h 78 % 0 mm 376 W/m2
08:56 15.2 °C 11.4 °C 1020.5 hPa West 16.1 km/h 25.7 km/h 78 % 0 mm 378 W/m2
09:01 15.3 °C 11.3 °C 1020.9 hPa West 14.5 km/h 24.1 km/h 77 % 0 mm 396 W/m2
09:06 15.6 °C 11.2 °C 1020.5 hPa West 14.5 km/h 29 km/h 75 % 0 mm 403 W/m2
09:11 15.7 °C 11.1 °C 1020.5 hPa WNW 17.7 km/h 29 km/h 74 % 0 mm 424 W/m2
09:16 15.7 °C 10.9 °C 1020.9 hPa West 17.7 km/h 32.2 km/h 73 % 0 mm 439 W/m2
09:21 15.8 °C 10.9 °C 1020.9 hPa West 17.7 km/h 32.2 km/h 73 % 0 mm 443 W/m2
09:26 16 °C 10.7 °C 1020.9 hPa WNW 17.7 km/h 29 km/h 71 % 0 mm 466 W/m2
09:31 16.2 °C 10.9 °C 1020.9 hPa WNW 16.1 km/h 29 km/h 71 % 0 mm 482 W/m2
09:37 16.3 °C 11.1 °C 1020.9 hPa West 16.1 km/h 24.1 km/h 71 % 0 mm 487 W/m2
09:42 16.3 °C 10.8 °C 1020.9 hPa West 16.1 km/h 25.7 km/h 70 % 0 mm 506 W/m2
09:47 16.2 °C 10.7 °C 1020.9 hPa West 16.1 km/h 25.7 km/h 70 % 0 mm 510 W/m2
09:52 16.4 °C 11.1 °C 1020.9 hPa West 14.5 km/h 25.7 km/h 71 % 0 mm 531 W/m2
09:57 16.6 °C 10.9 °C 1020.9 hPa West 12.9 km/h 24.1 km/h 69 % 0 mm 559 W/m2
10:02 16.8 °C 11.1 °C 1020.9 hPa West 14.5 km/h 24.1 km/h 69 % 0 mm 550 W/m2
10:07 17 °C 10.8 °C 1021.2 hPa WNW 14.5 km/h 24.1 km/h 67 % 0 mm 571 W/m2
10:12 17.1 °C 10.7 °C 1021.2 hPa WNW 14.5 km/h 22.5 km/h 66 % 0 mm 587 W/m2
10:17 17.1 °C 10.7 °C 1021.2 hPa WNW 14.5 km/h 22.5 km/h 66 % 0 mm 199 W/m2
10:22 17.2 °C 10.6 °C 1021.2 hPa WNW 12.9 km/h 20.9 km/h 65 % 0 mm 636 W/m2
10:27 17.3 °C 10.2 °C 1021.2 hPa West 14.5 km/h 25.7 km/h 63 % 0 mm 675 W/m2
10:32 17.2 °C 9.8 °C 1021.2 hPa West 17.7 km/h 32.2 km/h 62 % 0 mm 647 W/m2
10:37 17.3 °C 9.9 °C 1021.2 hPa WNW 16.1 km/h 32.2 km/h 62 % 0 mm 659 W/m2
10:42 17.6 °C 10 °C 1021.2 hPa WNW 14.5 km/h 24.1 km/h 61 % 0 mm 671 W/m2
10:47 17.7 °C 10.3 °C 1021.2 hPa West 16.1 km/h 30.6 km/h 62 % 0 mm 765 W/m2
10:52 17.9 °C 10.5 °C 1021.2 hPa West 16.1 km/h 30.6 km/h 62 % 0 mm 327 W/m2
10:57 17.6 °C 10 °C 1021.2 hPa West 16.1 km/h 30.6 km/h 61 % 0 mm 334 W/m2
11:02 17.7 °C 10.1 °C 1021.2 hPa West 16.1 km/h 30.6 km/h 61 % 0 mm 404 W/m2
11:07 17.8 °C 9.9 °C 1021.2 hPa WNW 14.5 km/h 29 km/h 60 % 0 mm 295 W/m2
11:12 17.7 °C 9.8 °C 1021.2 hPa WNW 16.1 km/h 25.7 km/h 60 % 0 mm 332 W/m2
11:16 17.6 °C 10 °C 1021.2 hPa West 14.5 km/h 25.7 km/h 61 % 0 mm 849 W/m2
11:21 17.8 °C 10.2 °C 1021.2 hPa West 16.1 km/h 33.8 km/h 61 % 0 mm 962 W/m2
11:26 18.1 °C 10.2 °C 1021.2 hPa WNW 16.1 km/h 33.8 km/h 60 % 0 mm 881 W/m2
11:31 18.3 °C 10.2 °C 1021.2 hPa WNW 16.1 km/h 29 km/h 59 % 0 mm 791 W/m2
11:36 18.3 °C 10.2 °C 1021.2 hPa WNW 14.5 km/h 29 km/h 59 % 0 mm 220 W/m2
11:41 18.1 °C 10.2 °C 1021.2 hPa West 14.5 km/h 24.1 km/h 60 % 0 mm 244 W/m2
11:46 17.8 °C 9.2 °C 1021.2 hPa West 14.5 km/h 24.1 km/h 57 % 0 mm 287 W/m2
11:51 17.7 °C 9.6 °C 1021.2 hPa West 12.9 km/h 22.5 km/h 59 % 0 mm 833 W/m2
11:56 18.2 °C 9.8 °C 1021.2 hPa West 11.3 km/h 20.9 km/h 58 % 0 mm 821 W/m2
12:01 18.6 °C 9.9 °C 1021.2 hPa West 12.9 km/h 25.7 km/h 57 % 0 mm 262 W/m2
12:06 18.6 °C 9.7 °C 1021.2 hPa West 12.9 km/h 25.7 km/h 56 % 0 mm 294 W/m2
12:11 18.5 °C 9.6 °C 1021.6 hPa West 12.9 km/h 20.9 km/h 56 % 0 mm 283 W/m2
12:16 18.3 °C 9.4 °C 1021.2 hPa West 12.9 km/h 29 km/h 56 % 0 mm 271 W/m2
12:21 18.3 °C 9.1 °C 1021.6 hPa WNW 11.3 km/h 29 km/h 55 % 0 mm 221 W/m2
12:26 18.2 °C 9.3 °C 1021.6 hPa WNW 9.7 km/h 19.3 km/h 56 % 0 mm 221 W/m2
12:31 18 °C 9.3 °C 1021.2 hPa West 12.9 km/h 20.9 km/h 57 % 0 mm 221 W/m2
12:36 17.8 °C 9.4 °C 1021.2 hPa West 12.9 km/h 20.9 km/h 58 % 0 mm 322 W/m2
12:41 17.8 °C 9.7 °C 1021.6 hPa West 11.3 km/h 17.7 km/h 59 % 0 mm 309 W/m2
12:46 17.8 °C 9.7 °C 1021.6 hPa West 11.3 km/h 17.7 km/h 59 % 0 mm 323 W/m2
12:47 17.8 °C 9.9 °C 1021.6 hPa West 11.3 km/h 17.7 km/h 60 % 0 mm 323 W/m2
12:52 17.8 °C 10.4 °C 1021.6 hPa West 11.3 km/h 20.9 km/h 62 % 0 mm 299 W/m2
12:57 17.8 °C 10.4 °C 1021.6 hPa West 12.9 km/h 22.5 km/h 62 % 0 mm 336 W/m2
13:02 17.7 °C 10.3 °C 1021.6 hPa West 14.5 km/h 22.5 km/h 62 % 0 mm 320 W/m2
13:07 17.6 °C 10 °C 1021.6 hPa WSW 12.9 km/h 20.9 km/h 61 % 0 mm 297 W/m2
13:12 17.5 °C 9.9 °C 1021.9 hPa WSW 12.9 km/h 20.9 km/h 61 % 0 mm 281 W/m2
13:17 17.5 °C 10.1 °C 1021.9 hPa WSW 12.9 km/h 20.9 km/h 62 % 0 mm 243 W/m2
13:22 17.6 °C 10 °C 1021.9 hPa WSW 11.3 km/h 19.3 km/h 61 % 0 mm 278 W/m2
13:27 17.6 °C 10.4 °C 1021.6 hPa West 11.3 km/h 17.7 km/h 63 % 0 mm 410 W/m2
13:32 17.8 °C 10.2 °C 1021.6 hPa West 11.3 km/h 20.9 km/h 61 % 0 mm 325 W/m2
13:37 18 °C 10.1 °C 1021.6 hPa West 11.3 km/h 20.9 km/h 60 % 0 mm 369 W/m2
13:42 18.1 °C 10.4 °C 1021.6 hPa West 12.9 km/h 24.1 km/h 61 % 0 mm 373 W/m2
13:47 18.1 °C 10.2 °C 1021.9 hPa WSW 14.5 km/h 24.1 km/h 60 % 0 mm 589 W/m2
13:52 18.2 °C 10.3 °C 1021.6 hPa West 14.5 km/h 22.5 km/h 60 % 0 mm 436 W/m2
13:58 18.3 °C 10.4 °C 1021.6 hPa West 12.9 km/h 20.9 km/h 60 % 0 mm 410 W/m2
14:03 18.5 °C 10.6 °C 1021.6 hPa West 11.3 km/h 24.1 km/h 60 % 0 mm 526 W/m2
14:08 18.5 °C 10.3 °C 1021.6 hPa WSW 12.9 km/h 24.1 km/h 59 % 0 mm 802 W/m2
14:13 18.6 °C 10.2 °C 1021.6 hPa WSW 14.5 km/h 22.5 km/h 58 % 0 mm 397 W/m2
14:18 18.9 °C 9.9 °C 1021.6 hPa West 12.9 km/h 20.9 km/h 56 % 0 mm 740 W/m2
14:23 19.3 °C 10.1 °C 1021.6 hPa West 11.3 km/h 20.9 km/h 55 % 0 mm 591 W/m2
14:28 19.4 °C 9.8 °C 1021.6 hPa West 12.9 km/h 20.9 km/h 54 % 0 mm 394 W/m2
14:33 19.6 °C 9.8 °C 1021.6 hPa West 11.3 km/h 20.9 km/h 53 % 0 mm 353 W/m2
14:38 19.6 °C 9.8 °C 1021.6 hPa West 11.3 km/h 17.7 km/h 53 % 0 mm 582 W/m2
14:43 19.5 °C 9.7 °C 1021.6 hPa West 9.7 km/h 16.1 km/h 53 % 0 mm 427 W/m2
14:48 19.6 °C 9.8 °C 1021.6 hPa WSW 9.7 km/h 14.5 km/h 53 % 0 mm 735 W/m2
14:53 19.7 °C 9.8 °C 1021.6 hPa WSW 9.7 km/h 16.1 km/h 53 % 0 mm 705 W/m2
14:58 19.8 °C 9.7 °C 1021.2 hPa WSW 11.3 km/h 19.3 km/h 52 % 0 mm 297 W/m2
15:03 19.6 °C 9.4 °C 1021.2 hPa WSW 9.7 km/h 19.3 km/h 52 % 0 mm 271 W/m2
15:08 19.6 °C 9.8 °C 1021.2 hPa WSW 9.7 km/h 16.1 km/h 53 % 0 mm 510 W/m2
15:13 19.6 °C 10.1 °C 1021.6 hPa West 11.3 km/h 20.9 km/h 54 % 0 mm 309 W/m2
15:18 19.6 °C 9.8 °C 1021.2 hPa West 11.3 km/h 20.9 km/h 53 % 0 mm 237 W/m2
15:23 19.6 °C 10.3 °C 1021.2 hPa West 9.7 km/h 17.7 km/h 55 % 0 mm 299 W/m2
15:28 19.5 °C 10.5 °C 1021.2 hPa West 9.7 km/h 16.1 km/h 56 % 0 mm 515 W/m2
15:33 19.4 °C 9.8 °C 1021.2 hPa West 11.3 km/h 16.1 km/h 54 % 0 mm 322 W/m2
15:38 19.3 °C 10.1 °C 1021.2 hPa West 11.3 km/h 20.9 km/h 55 % 0 mm 304 W/m2
15:43 19.2 °C 9.9 °C 1021.2 hPa West 11.3 km/h 20.9 km/h 55 % 0 mm 297 W/m2
15:48 19.1 °C 10.1 °C 1021.2 hPa West 11.3 km/h 19.3 km/h 56 % 0 mm 292 W/m2
15:53 19.1 °C 10.1 °C 1021.2 hPa West 9.7 km/h 16.1 km/h 56 % 0 mm 262 W/m2
15:58 19 °C 10 °C 1021.2 hPa WSW 9.7 km/h 17.7 km/h 56 % 0 mm 269 W/m2
16:03 18.9 °C 9.9 °C 1021.2 hPa WSW 9.7 km/h 17.7 km/h 56 % 0 mm 246 W/m2
16:08 18.9 °C 9.9 °C 1021.2 hPa West 9.7 km/h 17.7 km/h 56 % 0 mm 227 W/m2
16:13 18.8 °C 9.8 °C 1021.2 hPa West 9.7 km/h 17.7 km/h 56 % 0 mm 221 W/m2
16:18 18.7 °C 10 °C 1021.2 hPa West 9.7 km/h 17.7 km/h 57 % 0 mm 225 W/m2
16:23 18.8 °C 9.8 °C 1021.2 hPa West 9.7 km/h 17.7 km/h 56 % 0 mm 236 W/m2
16:28 18.7 °C 10 °C 1021.2 hPa West 9.7 km/h 14.5 km/h 57 % 0 mm 237 W/m2
16:33 18.6 °C 10.2 °C 1021.2 hPa WSW 8 km/h 14.5 km/h 58 % 0 mm 237 W/m2
16:39 18.7 °C 10.3 °C 1021.2 hPa West 6.4 km/h 12.9 km/h 58 % 0 mm 316 W/m2
16:44 18.8 °C 10.1 °C 1021.2 hPa West 6.4 km/h 14.5 km/h 57 % 0 mm 274 W/m2
16:49 18.8 °C 9.8 °C 1020.9 hPa West 9.7 km/h 14.5 km/h 56 % 0 mm 265 W/m2
16:54 18.8 °C 9.8 °C 1020.9 hPa West 9.7 km/h 14.5 km/h 56 % 0 mm 234 W/m2
16:59 18.8 °C 10.1 °C 1020.9 hPa West 6.4 km/h 12.9 km/h 57 % 0 mm 186 W/m2
17:04 18.8 °C 10.1 °C 1020.9 hPa WSW 4.8 km/h 11.3 km/h 57 % 0 mm 188 W/m2
17:09 18.8 °C 9.8 °C 1020.9 hPa WSW 4.8 km/h 11.3 km/h 56 % 0 mm 163 W/m2
17:14 18.8 °C 9.6 °C 1020.9 hPa WNW 6.4 km/h 11.3 km/h 55 % 0 mm 137 W/m2
17:19 18.8 °C 9.8 °C 1021.2 hPa WNW 6.4 km/h 11.3 km/h 56 % 0 mm 111 W/m2
17:24 18.7 °C 9.7 °C 1021.2 hPa WNW 6.4 km/h 11.3 km/h 56 % 0 mm 88 W/m2
17:29 18.7 °C 9.7 °C 1021.2 hPa NW 4.8 km/h 11.3 km/h 56 % 0 mm 97 W/m2
17:34 18.6 °C 9.9 °C 1021.2 hPa WNW 3.2 km/h 9.7 km/h 57 % 0 mm 83 W/m2
17:39 18.6 °C 10.2 °C 1021.2 hPa West 3.2 km/h 8 km/h 58 % 0 mm 70 W/m2
17:44 18.5 °C 9.8 °C 1021.2 hPa West 3.2 km/h 8 km/h 57 % 0 mm 76 W/m2
17:49 18.4 °C 9.7 °C 1021.2 hPa West 1.6 km/h 8 km/h 57 % 0 mm 72 W/m2
17:54 18.4 °C 10 °C 1021.2 hPa West 1.6 km/h 8 km/h 58 % 0 mm 74 W/m2
17:59 18.3 °C 9.9 °C 1021.2 hPa West 1.6 km/h 6.4 km/h 58 % 0 mm 74 W/m2
18:04 18.2 °C 9.8 °C 1021.2 hPa West 1.6 km/h 6.4 km/h 58 % 0 mm 70 W/m2
18:09 18.1 °C 9.9 °C 1020.9 hPa West 1.6 km/h 6.4 km/h 59 % 0 mm 69 W/m2
18:14 18.1 °C 10.2 °C 1020.9 hPa Calm   3.2 km/h 60 % 0 mm 72 W/m2
18:19 17.9 °C 10.5 °C 1020.9 hPa Calm   3.2 km/h 62 % 0 mm 76 W/m2
18:24 17.8 °C 10.4 °C 1020.9 hPa Calm   3.2 km/h 62 % 0 mm 72 W/m2
18:29 17.7 °C 10.3 °C 1020.9 hPa Calm   1.6 km/h 62 % 0 mm 70 W/m2
18:34 17.5 °C 10.4 °C 1020.9 hPa Calm   3.2 km/h 63 % 0 mm 65 W/m2
18:39 17.4 °C 10.5 °C 1020.9 hPa Calm   3.2 km/h 64 % 0 mm 67 W/m2
18:44 17.4 °C 11 °C 1020.9 hPa Calm   3.2 km/h 66 % 0 mm 72 W/m2
18:49 17.3 °C 10.9 °C 1020.9 hPa Calm   3.2 km/h 66 % 0 mm 70 W/m2
18:54 17.2 °C 10.8 °C 1020.9 hPa Calm     66 % 0 mm 65 W/m2
18:59 17.2 °C 11 °C 1020.9 hPa Calm     67 % 0 mm 60 W/m2
19:04 17.1 °C 10.7 °C 1020.9 hPa Calm     66 % 0 mm 58 W/m2
19:09 17.1 °C 10.9 °C 1020.9 hPa Calm     67 % 0 mm 47 W/m2
19:14 17.1 °C 11.2 °C 1020.9 hPa Calm     68 % 0 mm 51 W/m2
19:19 17.2 °C 11.2 °C 1020.9 hPa Calm     68 % 0 mm 47 W/m2
19:24 17.2 °C 11.2 °C 1020.9 hPa Calm     68 % 0 mm 37 W/m2
19:29 17.2 °C 11 °C 1020.9 hPa Calm     67 % 0 mm 33 W/m2
19:34 17.1 °C 10.9 °C 1020.9 hPa Calm     67 % 0 mm 28 W/m2
19:39 17.1 °C 11.4 °C 1020.9 hPa Calm     69 % 0 mm 26 W/m2
19:44 17 °C 11.5 °C 1020.9 hPa Calm     70 % 0 mm 23 W/m2
19:49 16.9 °C 11.4 °C 1020.9 hPa Calm     70 % 0 mm 16 W/m2
19:54 16.9 °C 11.8 °C 1020.9 hPa Calm     72 % 0 mm 12 W/m2
19:59 16.8 °C 11.9 °C 1020.9 hPa Calm     73 % 0 mm 9 W/m2
20:04 16.8 °C 12.1 °C 1020.9 hPa Calm     74 % 0 mm 7 W/m2
20:09 16.7 °C 12.2 °C 1020.9 hPa Calm     75 % 0 mm 5 W/m2
20:14 16.6 °C 12.2 °C 1020.9 hPa Calm     75 % 0 mm 0 W/m2
20:19 16.4 °C 12.2 °C 1020.9 hPa Calm     76 % 0 mm 0 W/m2
20:24 16.3 °C 12.1 °C 1020.9 hPa Calm     76 % 0 mm 0 W/m2
20:29 16.2 °C 12.2 °C 1020.9 hPa Calm     77 % 0 mm 0 W/m2
20:34 16.1 °C 11.9 °C 1020.9 hPa Calm     76 % 0 mm 0 W/m2
20:39 15.9 °C 11.9 °C 1021.2 hPa Calm     77 % 0 mm 0 W/m2
20:44 15.8 °C 11.9 °C 1020.9 hPa Calm     78 % 0 mm 0 W/m2
20:49 15.8 °C 12.2 °C 1021.2 hPa Calm     79 % 0 mm 0 W/m2
20:54 15.7 °C 12.1 °C 1021.2 hPa Calm     79 % 0 mm 0 W/m2
20:59 15.6 °C 12.2 °C 1021.2 hPa Calm     80 % 0 mm 0 W/m2
21:04 15.5 °C 12.3 °C 1021.2 hPa Calm     81 % 0 mm 0 W/m2
21:10 15.4 °C 12.2 °C 1021.2 hPa Calm     81 % 0 mm 0 W/m2
21:15 15.4 °C 12.2 °C 1021.2 hPa Calm     81 % 0 mm 0 W/m2
21:20 15.3 °C 12.2 °C 1021.6 hPa Calm     82 % 0 mm 0 W/m2
21:25 15.3 °C 12.2 °C 1021.6 hPa Calm     82 % 0 mm 0 W/m2
21:30 15.2 °C 12.2 °C 1021.6 hPa Calm     82 % 0 mm 0 W/m2
21:35 15.2 °C 12.2 °C 1021.6 hPa Calm     82 % 0 mm 0 W/m2
21:40 15.1 °C 12.1 °C 1021.6 hPa Calm     82 % 0 mm 0 W/m2
21:45 15.1 °C 12.2 °C 1021.6 hPa West 1.6 km/h 8 km/h 83 % 0 mm 0 W/m2
21:50 14.9 °C 12.2 °C 1021.6 hPa West 3.2 km/h 9.7 km/h 84 % 0 mm 0 W/m2
21:55 14.7 °C 12.2 °C 1021.6 hPa West 3.2 km/h 9.7 km/h 85 % 0 mm 0 W/m2
22:00 14.6 °C 12.1 °C 1021.6 hPa WSW 1.6 km/h 6.4 km/h 85 % 0 mm 0 W/m2
22:05 14.4 °C 11.7 °C 1021.6 hPa Calm     84 % 0 mm 0 W/m2
22:10 14.3 °C 11.6 °C 1021.6 hPa Calm     84 % 0 mm 0 W/m2
22:15 14.3 °C 11.6 °C 1021.6 hPa Calm     84 % 0 mm 0 W/m2
22:20 14.2 °C 11.6 °C 1021.2 hPa Calm     84 % 0 mm 0 W/m2
22:25 14.2 °C 11.6 °C 1021.2 hPa Calm     84 % 0 mm 0 W/m2
22:30 14.1 °C 11.4 °C 1021.6 hPa Calm     84 % 0 mm 0 W/m2
22:35 14.1 °C 11.4 °C 1021.2 hPa Calm     84 % 0 mm 0 W/m2
22:40 14 °C 11.3 °C 1021.6 hPa Calm   6.4 km/h 84 % 0 mm 0 W/m2
22:45 13.9 °C 11.4 °C 1021.2 hPa Calm   6.4 km/h 85 % 0 mm 0 W/m2
22:50 13.8 °C 11.3 °C 1021.2 hPa Calm   6.4 km/h 85 % 0 mm 0 W/m2
22:55 13.7 °C 11.1 °C 1021.2 hPa Calm   6.4 km/h 84 % 0 mm 0 W/m2
23:01 13.6 °C 11.1 °C 1021.2 hPa Calm   1.6 km/h 85 % 0 mm 0 W/m2
23:06 13.5 °C 11 °C 1021.2 hPa Calm     85 % 0 mm 0 W/m2
23:11 13.4 °C 10.9 °C 1021.2 hPa Calm   6.4 km/h 85 % 0 mm 0 W/m2
23:16 13.3 °C 11 °C 1021.2 hPa Calm   6.4 km/h 86 % 0 mm 0 W/m2
23:21 13.3 °C 11 °C 1021.2 hPa Calm     86 % 0 mm 0 W/m2
23:26 13.2 °C 10.9 °C 1021.2 hPa Calm     86 % 0 mm 0 W/m2
23:31 13.1 °C 11 °C 1021.2 hPa Calm     87 % 0 mm 0 W/m2
23:36 13.1 °C 11 °C 1020.9 hPa Calm     87 % 0 mm 0 W/m2
23:41 12.9 °C 10.8 °C 1021.2 hPa Calm     87 % 0 mm 0 W/m2
23:46 12.8 °C 10.8 °C 1021.2 hPa Calm     88 % 0 mm 0 W/m2
23:51 12.7 °C 10.8 °C 1021.2 hPa Calm     88 % 0 mm 0 W/m2
23:56 12.7 °C 10.9 °C 1021.2 hPa Calm     89 % 0 mm 0 W/m2
Delerius-Weather
Compliments of Weather Underground - 2.25 mb

Data updates at regular intervals.